Temp
20 20 21 21 22 22 22 22 22 23 23 23 23 23 23 22 22 22 22 21 21 21 21 20 21 20 21 22 21 21 21 21 21 20 20 20 20 20 20 20 20 19 19
21 21 21 22 22 21 22 21 23 23 23 23 23 23 22 22 22 22 22 21 21 21 21 21 20 20 21 21 21 21 21 22 21 20 20 20 21 20 20 20 20 19 19
21 21 21 21 21 21 22 22 22 22 23 22 23 22 22 22 21 21 21 21 21 21 21 21 21 21 21 21 21 21 21 22 21 21 21 21 21 21 20 20 19 19 20
21 21 21 21 21 21 22 22 22 21 22 22 22 22 22 22 22 21 21 21 21 21 21 21 21 21 21 22 21 22 22 22 21 21 21 21 21 20 20 20 20 19 19
21 21 21 21 21 21 22 21 21 21 22 22 22 22 22 22 21 21 21 21 21 21 21 21 21 21 21 22 22 22 22 22 21 22 21 21 20 20 20 20 20 19 20
21 21 21 21 21 21 21 21 21 22 22 22 22 22 22 21 21 21 21 21 21 21 21 21 22 22 22 22 22 23 22 22 20 21 21 21 21 20 20 20 20 20 20
22 22 21 22 22 21 21 21 22 23 22 22 22 22 22 21 22 21 22 22 22 22 22 22 23 23 23 22 23 22 22 21 21 21 21 21 21 20 20 20 20 19 19
22 22 22 22 22 22 21 22 22 23 22 22 22 22 22 22 23 23 23 22 22 22 22 23 23 23 23 23 22 22 22 22 22 21 21 21 21 20 20 20 20 20 19
22 22 21 21 21 21 22 22 22 22 22 22 23 23 23 23 23 23 23 23 23 22 23 23 24 24 24 23 23 22 22 22 22 22 21 21 21 20 20 20 20 20 19
22 22 21 21 21 21 22 21 21 21 22 23 23 23 23 23 23 22 23 23 23 23 23 24 24 24 24 23 23 23 23 23 23 23 22 22 21 20 20 20 20 20 20
22 22 21 21 21 22 22 21 21 21 22 23 23 24 24 23 23 23 22 23 23 23 23 24 24 24 24 23 24 23 23 24 24 23 22 22 21 21 20 20 20 20 21
21 22 22 21 22 22 22 22 22 22 23 23 24 24 23 23 23 23 23 23 24 24 24 24 24 24 24 24 24 24 24 24 23 23 23 22 22 22 21 20 20 20 20
22 22 22 22 22 22 22 22 23 23 24 24 25 24 24 23 23 23 24 24 25 24 24 24 24 25 24 24 25 25 24 24 24 23 23 22 22 22 22 20 20 20 20
22 23 23 23 23 23 23 23 24 24 24 24 25 24 24 24 24 24 24 24 24 24 24 24 24 24 24 25 25 25 24 23 23 23 23 23 22 22 22 21 21 20 20
23 23 24 23 23 23 23 24 24 25 25 25 25 24 24 24 25 24 25 25 24 24 24 24 25 24 24 24 24 24 24 24 24 23 23 23 22 22 21 21 21 21 20
24 24 24 23 24 24 24 24 25 25 25 25 25 25 24 25 25 25 25 24 24 24 24 24 24 24 24 25 25 25 25 25 24 23 23 23 23 22 22 21 22 22 21
25 25 25 24 24 24 25 25 25 25 25 25 25 25 25 25 25 25 24 24 24 24 24 24 24 24 24 24 24 24 25 24 24 23 23 23 23 22 22 22 21 21 21
26 25 25 24 25 25 25 25 24 25 25 26 26 25 25 25 25 24 24 24 24 24 24 24 24 24 24 24 24 25 25 24 24 24 24 24 23 22 22 22 22 21 21
26 25 25 25 25 25 25 25 25 26 25 25 26 26 25 25 25 25 25 24 24 24 24 24 23 23 24 24 24 24 24 24 24 24 23 24 24 23 23 22 22 21 21
26 25 25 25 26 26 26 25 26 26 26 25 25 25 25 25 25 25 24 24 24 24 23 23 23 23 23 23 24 24 24 24 24 24 23 24 24 24 22 22 22 21 21
26 25 24 24 25 25 25 24 25 25 26 26 25 25 25 25 25 25 25 24 23 23 23 23 23 23 23 23 24 24 23 23 24 24 23 23 23 23 22 22 22 21 21
25 25 24 25 25 25 25 25 25 26 25 26 25 25 26 26 25 25 24 24 23 23 23 23 23 23 23 23 23 21 19 22 23 23 23 23 22 22 22 22 22 21 21
26 25 25 25 25 25 25 25 25 25 25 25 25 25 25 25 25 25 24 24 23 23 23 23 23 23 23 22 23 22 18 18 20 22 23 23 23 22 22 22 22 21 21
27 26 26 25 26 25 25 25 24 24 23 24 25 25 25 25 25 25 24 24 24 24 23 23 23 23 23 23 22 23 23 22 18 19 22 22 23 23 22 22 21 21 21
28 26 26 26 26 26 25 25 24 25 25 25 25 25 25 26 25 25 24 24 24 23 24 23 23 22 22 22 22 22 22 22 22 19 17 20 22 22 23 22 22 22 22
29 27 26 26 25 26 25 25 25 24 25 25 25 25 25 25 25 25 24 24 23 23 23 23 23 23 22 22 22 22 23 22 21 20 16 18 20 22 23 22 22 22 22
Height
815 816 819 819 820 821 823 825 825 825 826 828 830 832 833 834 835 837 838 838 838 837 837 837 838 838 837 838 838 838 839 839 838 838 838 838 838 838 840 840 840 840 839
814 818 820 821 823 824 825 827 827 828 829 832 833 835 836 837 837 839 839 840 840 839 839 839 839 840 839 839 839 840 840 839 839 839 839 839 840 841 842 842 843 843 843
815 818 821 823 825 826 828 829 830 832 833 835 836 838 838 838 840 841 842 841 841 841 841 841 841 841 840 840 841 840 839 839 839 840 840 840 842 842 843 844 844 845 846
815 819 822 824 826 828 830 832 834 836 837 838 839 840 840 841 842 843 844 843 843 843 843 843 843 843 842 841 840 839 839 840 840 841 842 842 844 845 844 846 845 846 848
817 820 823 826 828 830 832 834 837 838 839 840 841 842 842 843 845 845 844 844 844 844 844 844 844 843 843 842 841 841 844 844 846 846 844 844 844 846 846 848 848 848 850
818 822 824 827 830 832 835 837 839 840 841 842 843 843 844 845 846 846 845 845 845 845 845 845 844 843 843 843 842 844 847 846 846 849 849 847 846 847 848 850 850 850 852
819 822 826 828 831 833 836 838 840 840 842 843 844 845 845 846 847 848 847 847 847 847 846 845 845 844 844 844 845 845 846 847 842 848 848 849 848 848 849 851 852 851 852
818 822 825 829 832 835 837 838 840 841 842 843 845 846 846 846 847 847 846 848 848 848 848 846 845 845 845 845 846 847 847 848 846 843 844 848 848 848 850 850 852 852 852
818 822 825 829 832 835 837 839 840 841 843 844 845 846 846 846 847 847 847 847 848 848 848 847 846 846 846 847 847 848 848 848 846 846 845 846 846 847 848 849 851 851 851
818 821 825 828 831 834 836 839 840 841 842 843 845 846 846 847 848 848 848 847 847 849 849 848 848 847 847 849 847 849 848 848 848 847 846 846 845 845 847 848 849 850 851
818 821 825 827 830 834 837 839 839 840 841 844 845 845 847 848 848 847 847 847 847 849 849 849 849 848 847 848 847 848 847 846 846 846 846 846 846 847 848 849 850 851 851
817 820 823 827 830 833 836 837 837 839 840 842 844 845 847 847 846 847 846 846 847 847 848 849 849 849 848 848 848 847 846 845 846 846 847 847 846 846 847 849 850 852 852
814 818 821 825 829 832 834 835 835 838 839 841 843 844 845 846 846 846 846 845 846 846 847 848 848 848 848 848 848 848 846 846 846 847 847 848 848 847 847 849 850 851 852
813 815 819 824 827 830 832 833 834 836 838 839 840 843 844 844 845 846 845 845 845 846 847 848 848 847 847 848 848 847 847 846 846 847 847 848 848 847 847 848 850 852 852
810 814 817 821 824 827 830 831 832 834 836 838 838 840 842 843 844 845 845 845 846 846 846 847 846 847 846 846 846 846 846 845 846 846 846 847 847 846 846 847 850 850 852
807 810 814 817 820 824 827 829 830 832 834 836 837 839 841 841 842 843 844 845 845 846 846 847 847 846 846 846 845 846 846 845 845 845 845 845 846 845 846 846 848 849 852
802 805 809 813 818 821 824 826 830 831 832 834 835 837 838 839 840 842 843 843 844 846 847 847 846 846 845 846 847 846 846 846 845 845 844 844 845 846 845 846 848 848 851
798 802 806 810 815 818 821 825 828 830 830 831 832 834 836 839 839 840 841 842 844 845 846 846 846 846 845 845 846 846 845 846 845 845 845 845 845 846 847 848 848 849 850
793 797 802 808 811 814 818 822 825 828 829 830 829 830 833 836 838 839 840 842 843 843 845 845 846 845 845 845 845 845 846 846 846 846 846 846 846 846 847 849 849 850 850
787 793 797 803 806 811 815 818 822 825 826 827 828 829 831 834 836 838 839 840 841 843 844 845 845 845 844 845 845 845 847 847 847 847 847 847 847 848 848 849 849 849 850
783 788 793 798 802 806 810 814 817 818 821 824 826 828 829 831 834 835 836 838 840 841 842 843 844 844 844 844 844 845 846 848 848 848 848 848 848 849 849 849 849 850 850
775 781 788 792 796 800 805 809 812 815 817 820 822 825 827 829 831 833 834 835 837 838 839 840 841 841 842 842 843 845 847 848 848 849 849 849 849 849 849 849 849 850 851
768 773 778 783 788 794 799 805 809 812 814 817 818 821 823 826 828 830 832 833 834 835 836 838 839 839 840 841 842 843 848 850 847 848 849 849 850 849 850 850 851 850 850
758 764 771 777 781 787 792 797 802 804 808 810 813 817 820 822 824 827 829 830 831 832 833 835 837 838 838 840 841 842 841 842 847 850 848 849 849 849 849 850 850 850 851
749 756 762 769 774 779 785 790 795 799 802 805 809 813 816 818 820 823 825 826 828 829 831 833 835 837 838 840 841 841 842 842 843 845 850 848 848 848 848 849 849 849 850
742 749 755 761 767 772 778 784 788 792 796 800 804 808 811 813 816 818 821 823 825 827 829 832 834 836 837 839 839 840 840 841 842 843 846 847 847 847 847 847 847 848 848
Wind_Speed
18 17 20 21 23 22 22 24 25 27 26 25 24 23 22 22 21 20 19 16 16 15 14 14 12 10 9 11 12 12 12 13 12 11 11 11 12 13 12 12 13 15 15
21 20 21 22 23 24 24 22 25 25 24 23 22 22 21 21 20 18 17 14 14 13 13 13 12 10 10 11 11 9 9 10 10 11 10 10 11 11 10 12 11 13 14
23 24 23 23 24 24 24 24 24 22 23 21 20 19 19 18 17 16 14 13 13 12 12 11 10 9 9 9 9 7 6 8 8 9 8 8 10 9 14 13 13 11 13
28 25 26 24 24 24 24 24 23 23 23 19 19 18 17 16 15 13 12 12 12 11 10 10 8 7 7 7 7 6 5 6 7 6 6 11 8 11 13 12 13 12 12
28 27 25 24 25 24 25 24 22 22 22 18 17 16 15 15 12 11 11 11 10 10 9 8 6 5 5 6 5 5 5 6 8 6 8 9 10 12 13 12 13 14 14
27 28 25 25 24 24 23 22 21 21 19 17 15 14 13 12 11 10 10 10 9 8 7 6 5 4 5 7 6 9 11 10 14 11 7 7 11 14 12 13 12 13 12
29 28 25 26 25 24 23 21 19 18 16 14 13 12 11 10 9 9 8 8 7 7 5 5 6 6 7 6 10 12 8 19 14 4 10 6 12 13 12 12 11 12 11
29 28 27 24 24 23 21 20 18 16 15 13 11 10 9 9 8 8 8 7 6 5 5 6 7 7 7 7 10 8 9 14 15 14 11 11 12 13 12 12 12 12 12
29 28 26 24 23 21 20 19 18 16 14 13 11 10 8 7 6 6 7 6 5 5 5 5 7 8 9 10 10 7 6 8 12 10 15 15 13 12 13 14 14 11 13
30 28 26 25 24 23 21 17 17 16 15 14 11 10 8 6 5 3 3 4 4 4 5 5 7 7 7 9 10 8 7 1 8 11 14 14 11 13 15 14 15 14 13
28 27 27 26 26 25 22 18 17 16 15 14 12 11 8 6 5 4 2 0 3 4 4 4 6 8 8 6 7 5 4 4 8 9 12 13 13 12 13 13 13 14 15
27 28 29 28 27 25 23 20 18 17 16 15 14 12 9 6 5 7 4 0 4 6 4 2 4 6 8 6 9 10 14 9 9 10 12 10 11 13 12 13 13 14 14
32 31 30 29 28 27 26 22 19 18 16 15 14 13 12 7 7 8 2 3 6 5 5 2 2 3 4 4 8 6 8 10 7 8 9 7 7 8 9 13 14 15 14
29 31 31 32 31 28 26 23 19 19 19 18 17 15 11 11 10 5 4 6 5 6 5 4 2 1 1 3 3 3 6 8 8 5 6 6 4 7 11 12 15 14 13
31 31 32 32 33 30 27 25 23 23 22 21 18 17 16 12 9 5 5 4 3 6 5 5 5 1 1 3 4 1 3 3 1 3 7 6 5 5 11 10 13 12 14
32 32 36 35 34 32 26 26 25 23 22 21 20 18 19 15 11 10 6 4 6 7 6 6 4 1 2 5 2 0 4 2 2 5 5 5 5 3 6 9 10 11 12
35 38 40 38 36 34 28 27 24 21 22 22 23 20 19 17 11 10 7 5 4 6 6 5 1 1 1 3 2 2 2 4 4 6 4 2 8 4 4 6 10 11 12
35 36 41 37 38 35 31 27 21 16 20 22 21 21 22 18 13 10 7 7 6 7 6 5 4 3 0 2 3 6 4 4 2 2 2 5 4 8 6 6 6 8 8
38 39 39 37 40 36 32 30 23 20 14 15 16 16 24 20 16 11 9 7 5 8 8 6 5 3 3 3 2 4 9 6 7 6 6 4 3 6 8 6 6 6 8
40 42 44 41 40 40 34 31 27 25 19 14 15 17 22 20 18 12 11 10 8 10 10 7 5 2 2 2 1 2 5 7 8 8 8 10 8 7 6 7 5 7 7
38 41 41 38 42 41 36 31 29 29 28 22 18 19 18 21 20 16 13 13 12 12 10 8 6 2 5 1 3 2 5 6 7 12 9 12 8 5 4 3 3 6 7
39 41 40 42 44 42 38 35 31 30 28 28 22 23 20 19 18 17 15 14 15 14 12 12 7 5 5 6 4 3 1 3 7 11 11 10 10 5 5 6 5 7 6
38 42 43 47 47 43 40 35 30 26 26 24 24 26 21 20 21 19 17 16 16 15 14 13 9 11 8 7 3 4 2 3 2 7 11 9 6 7 6 5 5 5 4
41 44 44 43 46 45 42 39 34 28 24 31 29 25 22 20 25 21 19 18 15 13 16 15 13 11 11 7 5 3 3 5 3 0 7 10 8 6 6 7 7 5 4
42 42 46 47 46 43 43 41 39 34 35 30 30 25 22 25 26 24 23 20 18 17 17 16 14 13 11 6 4 6 4 3 4 3 2 5 9 9 6 8 10 8 6
40 40 41 44 44 44 43 42 41 39 36 31 27 26 25 29 29 27 26 24 21 20 19 17 14 12 12 10 6 8 7 4 5 3 2 3 7 9 12 11 13 11 10
Wind_Direction
146 147 150 145 141 132 132 130 122 118 116 115 113 113 112 110 107 103 99 96 92 89 87 84 84 86 93 96 94 91 96 91 92 94 94 95 106 112 114 107 111 112 111
145 147 148 144 138 135 136 130 124 120 118 116 115 115 114 111 108 104 101 102 96 91 87 83 83 82 80 81 85 82 90 100 89 86 88 95 103 115 125 113 110 113 114
148 147 147 142 141 140 140 135 127 122 117 114 114 117 115 112 109 106 112 107 100 95 88 82 76 77 79 80 87 102 103 98 102 88 79 102 105 103 132 131 116 115 115
148 148 148 146 144 143 142 136 127 122 116 119 119 119 117 112 110 115 113 103 97 89 82 78 76 67 71 83 97 113 118 99 92 105 128 106 108 113 121 129 121 119 108
152 152 151 150 148 147 147 137 131 128 126 124 120 116 117 114 113 112 106 103 92 82 79 76 73 78 72 71 85 99 93 71 58 104 145 135 127 125 125 126 121 120 115
156 158 155 153 151 153 151 143 138 135 131 126 119 116 118 120 119 110 108 98 87 76 67 71 71 79 73 68 63 71 64 86 49 108 134 126 131 128 128 128 129 121 120
159 163 159 159 159 156 156 153 149 147 143 136 127 124 122 125 120 101 101 93 79 67 58 61 62 67 70 70 59 61 67 87 140 174 142 152 129 129 133 129 125 131 127
161 166 164 166 163 162 159 160 160 159 157 148 139 133 130 135 121 107 97 83 74 68 56 60 65 66 67 69 78 76 73 97 127 142 159 165 143 145 141 142 136 140 138
163 163 167 167 167 169 166 167 170 172 168 162 159 154 143 141 133 112 92 73 50 57 58 67 78 75 70 58 55 79 78 95 123 128 165 155 151 153 155 154 149 148 148
163 165 165 169 172 175 172 171 173 177 177 178 175 171 165 149 129 99 96 58 42 47 66 87 83 59 41 52 28 55 20 40 121 140 143 143 152 168 166 164 160 158 154
165 168 167 168 174 175 175 173 177 180 183 183 182 181 171 174 171 161 189 163 55 65 95 107 81 64 56 48 34 46 46 115 125 133 137 150 163 171 172 168 167 169 160
165 173 173 173 174 172 175 176 182 180 185 184 182 179 175 200 182 184 176 125 144 124 138 116 103 71 54 49 47 38 49 78 133 142 125 148 175 187 173 186 177 179 167
172 173 179 179 177 176 179 182 184 182 184 182 180 180 187 186 175 176 247 207 150 144 133 157 115 78 52 29 34 30 46 90 104 142 134 152 186 212 200 183 181 180 174
173 177 179 181 181 183 185 187 189 188 185 183 182 181 184 197 210 208 147 129 121 128 169 155 180 79 32 34 2 357 19 108 120 134 163 163 192 235 215 200 181 182 182
177 180 180 182 183 187 192 196 196 194 192 190 192 196 198 195 187 191 171 146 161 162 165 209 195 247 268 346 357 115 51 82 127 138 169 179 201 245 221 216 206 190 186
181 183 188 189 186 185 195 199 196 198 202 204 210 211 211 214 191 174 172 196 201 210 186 182 253 279 16 23 101 184 30 37 151 181 159 180 205 247 219 220 203 204 202
189 186 191 193 189 192 193 201 200 212 219 219 217 213 214 214 197 180 177 187 189 183 213 218 226 324 36 74 104 275 109 87 85 96 156 224 197 212 230 210 211 220 220
191 188 191 190 190 195 192 196 198 204 211 212 199 209 212 210 211 195 194 201 223 250 221 252 265 279 40 32 339 340 158 130 101 124 121 145 155 197 199 206 214 219 232
190 189 188 191 194 194 195 200 202 203 190 180 184 194 200 206 204 205 210 212 225 193 217 241 242 238 319 323 84 47 136 117 113 125 87 111 151 201 200 180 198 213 217
187 191 192 192 195 196 195 202 207 211 207 205 207 198 200 203 206 218 213 207 208 209 217 223 208 249 173 345 154 101 142 123 143 133 108 110 108 108 153 169 202 204 206
186 188 190 189 195 196 196 197 205 212 217 219 220 214 198 199 219 222 216 206 213 216 222 204 196 232 194 254 167 193 167 137 123 139 122 133 125 118 120 91 93 166 167
184 189 188 191 195 198 198 204 205 209 216 217 222 218 222 217 219 223 225 219 208 214 216 197 209 206 208 193 184 137 51 107 131 155 145 143 129 144 126 91 111 150 149
182 185 187 193 197 197 198 199 203 208 210 217 226 229 223 223 225 221 220 210 211 220 212 197 214 189 186 172 206 164 100 200 170 173 163 174 174 163 154 137 128 133 151
190 189 189 190 194 196 198 198 199 200 204 220 223 224 229 228 226 215 213 208 204 204 203 207 205 199 196 188 185 211 184 145 155 136 189 192 194 203 184 199 178 177 179
191 190 191 190 193 194 197 199 200 204 213 222 225 229 235 231 218 217 215 211 209 207 202 200 205 206 208 182 186 192 170 148 154 135 185 216 220 214 215 228 208 204 228
197 194 192 190 191 196 196 200 202 205 211 219 218 224 231 225 212 214 211 212 215 206 201 204 207 205 202 189 189 192 196 181 193 158 125 179 227 235 245 244 235 226 224